Current weather by "City, St" or "zip code"  
 

Current Conditions: Hinckley Field of Dreams Airport, MN

Fair


28.0 F

Last Updated on Nov 28 2021, 3:55 am CST
Humidity: 55%
Wind Speed: N 0.0 mph
Barometer 30.06 in
Dewpoint: 14.0 F
Visibility: 10.00 mi
Precip: --
Heat Index: NA
Wind Chill: NA
Current conditions at:

Hinckley Field of Dreams Airport, MN (K04W)

Lat: 46.02437 Lon: 92.89905

Local Radar Image active severe weather and emergency alerts image image weather storm and storm spotter reports image weather observation monitoring service image
Local
Radar
Active
Alerts
Storm Reports Obs
Monitoring

Sign-up For Email & Text Message Weather Alert Notification Services



Advertise Here

Observation History for Hinckley Field of Dreams Airport, MN


Time Wind
(mph)
Vis
(mi)
Weather Precip (in) Temperature (F) Relative
Humidity
Wind
Chill
(F)
Heat
Index
(F)
Pressure
Air Dwpt altimeter
(in)
sea level
(mb)
Rmks
3:55 am CST N 0.0 10.00 Fair -- 28.0 14.0 55% NA NA 30.06 M
2:55 am CST NW 4.6 10.00 Fair -- 28.0 15.8 59% 23 NA 30.06 M
1:55 am CST NW 9.2 G 19.6 10.00 Fair -- 30.0 17.6 59% 22 NA 30.04 M
12:55 am CST NW 10.4 G 20.7 10.00 Fair -- 30.0 17.6 59% 21 NA 30.03 M
11:55 pm CST NW 10.4 G 18.4 10.00 Fair -- 32.0 19.4 60% 24 NA 30.01 M
10:55 pm CST N 0.0 10.00 Fair -- 32.0 23.0 69% NA NA 29.99 M
9:55 pm CST NW 4.6 10.00 Fair -- 32.0 24.8 75% 27 NA 29.99 M
8:55 pm CST N 0.0 10.00 Fair -- 32.0 26.6 80% NA NA 29.98 M
7:55 pm CST N 0.0 10.00 Fair -- 32.0 26.6 80% NA NA 29.98 M
6:55 pm CST N 0.0 10.00 Fair -- 32.0 23.0 69% NA NA 29.95 M
5:55 pm CST N 0.0 10.00 Fair -- 32.0 21.2 64% NA NA 29.95 M
4:55 pm CST N 0.0 10.00 Mostly Cloudy -- 32.0 21.2 64% NA NA 29.94 M
2:55 pm CST N 0.0 10.00 Mostly Cloudy -- 37.0 21.2 52% NA NA 29.90 M
1:55 pm CST N 0.0 10.00 Overcast -- 36.0 17.6 48% NA NA 29.88 M
12:55 pm CST N 0.0 10.00 Overcast -- 34.0 15.8 48% NA NA 29.88 M
11:55 am CST N 0.0 10.00 Overcast -- 34.0 14.0 44% NA NA 29.86 M
10:55 am CST N 0.0 10.00 Mostly Cloudy -- 32.0 14.0 47% NA NA 29.85 M
9:55 am CST N 0.0 10.00 Overcast -- 30.0 14.0 51% NA NA 29.85 M
8:55 am CST N 0.0 10.00 Mostly Cloudy -- 27.0 14.0 59% NA NA 29.82 M
7:55 am CST N 0.0 10.00 Partly Cloudy -- 27.0 14.0 59% NA NA 29.79 M
6:55 am CST N 0.0 10.00 Partly Cloudy -- 27.0 12.2 54% NA NA 29.78 M
5:55 am CST N 0.0 10.00 Partly Cloudy -- 28.0 12.2 51% NA NA 29.78 M
4:55 am CST N 0.0 10.00 Fair -- 28.0 12.2 51% NA NA 29.77 M

Regional Weather Observation


Moose Lake Carlton County Airport, MN (KMZH)

Fair
37.0 F

Mc Gregor - Isedor Iverson Airport, MN (KHZX)

Partly Cloudy and Breezy
34.0 F

Mora Municipal Airport, MN (KJMR)

Fair
37.0 F

Cloquet Carlton County Airport, MN (KCOQ)

Fair
27.0 F

Rush City Regional Airport, MN (KROS)

Fair
41.0 F

Richard I. Bong Airport, WI (KSUW)

Fair
42.0 F

Advertise Here


Advertise Here